Location: Kępno
(51.2838°N, 17.9864°E)
Time: 05:48:58
(UTC+02:00)

ISS - Pass Details

Date: 04 October 2018
Orbit: 403 x 408 km, 51.6° (Epoch: 21 October)

Event Time Altitude Azimuth Distance (km) Brightness Sun altitude
Rises 21:16:23 0° 284° (WNW) 2,341 1.2 -27.5°
Reaches altitude 10° 21:18:38 10° 273° (W) 1,476 -0.2 -27.8°
Enters shadow 21:19:23 15° 265° (W) 1,215 -0.8 -27.9°
